This is the latest recevied weather packets stored in our database for station/object VE7KNL-13. If no packets are shown the sender has not sent any weather packets the latest 10 day(s).
| Time | Temp. | Humidity | Pressure | Rain* | Wind** | Luminosity | Snow |
|---|---|---|---|---|---|---|---|
| 1777983017 | 4.44° C | 88% | 1010.1 hPa | 0 mm | - | - | - |
| 1777981257 | 5° C | 87% | 1010.1 hPa | 0 mm | - | - | - |
| 1777977016 | 5.56° C | 86% | 1009.6 hPa | 0 mm | - | - | - |
| 1777975837 | 5.56° C | 84% | 1009.2 hPa | 0 mm | - | - | - |
| 1777973416 | 6.67° C | 83% | 1009.3 hPa | 0 mm | - | - | - |
| 1777969816 | 7.22° C | 80% | 1008.8 hPa | 0 mm | - | - | - |
| 1777960817 | 11.11° C | 71% | 1007.9 hPa | 0 mm | - | - | - |
| 1777958417 | 11.67° C | 68% | 1007.5 hPa | 0 mm | - | - | - |
| 1777952457 | 16.11° C | 56% | 1005.3 hPa | 0 mm | - | - | - |
| 1777948837 | 21.11° C | 36% | 1004.5 hPa | 0 mm | - | - | - |
| 1777944017 | 24.44° C | 26% | 1004.4 hPa | 0 mm | - | - | - |
| 1777942216 | 24.44° C | 26% | 1004.3 hPa | 0 mm | - | - | - |
| 1777940416 | 24.44° C | 26% | 1004.4 hPa | 0 mm | - | - | - |
| 1777939837 | 24.44° C | 25% | 1004.4 hPa | 0 mm | - | - | - |
| 1777937416 | 25° C | 26% | 1004.8 hPa | 0 mm | - | - | - |
| 1777935036 | 23.89° C | 27% | 1005.2 hPa | 0 mm | - | - | - |
| 1777932616 | 25° C | 27% | 1005.7 hPa | 0 mm | - | - | - |
| 1777930216 | 23.89° C | 31% | 1005.8 hPa | 0 mm | - | - | - |
| 1777928416 | 23.89° C | 28% | 1005.8 hPa | 0 mm | - | - | - |
| 1777923618 | 23.89° C | 28% | 1006.1 hPa | 0 mm | - | - | - |
| 1777921818 | 23.89° C | 30% | 1006.3 hPa | 0 mm | - | - | - |
| 1777919418 | 22.78° C | 28% | 1006.6 hPa | 0 mm | - | - | - |
| 1777914017 | 20.56° C | 41% | 1006.9 hPa | 0 mm | - | - | - |
| 1777911617 | 17.78° C | 48% | 1007.2 hPa | 0 mm | - | - | - |
| 1777906217 | 12.22° C | 64% | 1007.9 hPa | 0 mm | - | - | - |
* Rain latest hour (hover to see other rain measurements)
** Current wind speed in m/s (hover to see current wind gust speed)